Needles, CA

9:55 PM PST on December 08, 2016 (GMT -0800)
Needles

Weather History for KEED - February, 2013

Change the Weather History Date:

Saturday, February 9, 2013

  Actual Average Record
Temperature  
Mean Temperature 52 °F 57 °F  
Max Temperature 59 °F 69 °F 86 °F (2015)
Min Temperature 45 °F 46 °F 27 °F (1933)
Degree Days  
Heating Degree Days 13    
Cooling Degree Days 0    
Growing Degree Days 2 (Base 50)    
Moisture  
Dew Point 27 °F    
Average Humidity 40    
Maximum Humidity 59    
Minimum Humidity 24    
Precipitation  
Precipitation 0.00 in 0.03 in 0.89 in (1976)
Month to date precipitation 0.24  
Year to date precipitation 0.96  
Sea Level Pressure  
Sea Level Pressure 29.87 in    
Wind  
Wind Speed 6 mph (West)    
Max Wind Speed 14 mph    
Max Gust Speed 17 mph    
Visibility 10 miles    
Events      
T = Trace of Precipitation, MM = Missing Value Source: NWS Daily Summary

Daily Weather History Graph

Daily Weather History Graph

Search for Another Location

Airport or City:

Trip Planner

Search our weather history database for the weather conditions in past years. The results will help you decide how hot, cold, wet, or windy it might be!

Date:

Astronomy

Feb. 09, 2013 Rise Set
Actual Time 6:29 AM PST 5:16 PM PST
Civil Twilight 6:03 AM PST 5:42 PM PST
Nautical Twilight 5:33 AM PST 6:11 PM PST
Astronomical Twilight 5:04 AM PST 6:41 PM PST
Moon 5:44 AM PST 5:01 PM PST
Length of Visible Light 11h 38m
Length of Day
10h 46m
Waning Crescent, 0% of the Moon is Illuminated
Feb 9
Waning Crescent
Feb 9
New
Feb 17
First Quarter
Feb 25
Full
Mar 4
Last Quarter

Hourly Weather History & Observations

Time (PST) Temp. Windchill Dew Point Humidity Pressure Visibility Wind Dir Wind Speed Gust Speed Precip Events Conditions
12:56 AM 48.0 °F - 33.1 °F 56% 29.76 in 10.0 mi WSW 3.5 mph - N/A   Overcast
1:56 AM 48.9 °F - 32.0 °F 52% 29.75 in 10.0 mi West 4.6 mph - N/A   Overcast
2:56 AM 46.9 °F - 33.1 °F 59% 29.76 in 10.0 mi WSW 11.5 mph - N/A   Clear
3:56 AM 46.0 °F 43.1 °F 32.0 °F 58% 29.77 in 10.0 mi West 5.8 mph - N/A   Mostly Cloudy
4:56 AM 45.0 °F 39.3 °F 30.9 °F 58% 29.79 in 10.0 mi WSW 11.5 mph - N/A   Mostly Cloudy
5:56 AM 46.0 °F 44.8 °F 30.9 °F 56% 29.81 in 10.0 mi WSW 3.5 mph - N/A   Overcast
6:56 AM 46.9 °F - 30.9 °F 54% 29.83 in 10.0 mi WSW 6.9 mph - N/A   Overcast
7:56 AM 48.9 °F - 30.0 °F 48% 29.86 in 10.0 mi WSW 8.1 mph - N/A   Overcast
8:56 AM 51.1 °F - 28.0 °F 41% 29.87 in 10.0 mi WNW 5.8 mph - N/A   Overcast
9:56 AM 54.0 °F - 28.0 °F 37% 29.88 in 10.0 mi WNW 13.8 mph - N/A   Clear
10:56 AM 55.0 °F - 28.0 °F 35% 29.89 in 10.0 mi WNW 4.6 mph - N/A   Mostly Cloudy
11:56 AM 55.9 °F - 27.0 °F 33% 29.88 in 10.0 mi North 5.8 mph 17.3 mph N/A   Overcast
12:56 PM 57.0 °F - 26.1 °F 30% 29.87 in 10.0 mi ENE 6.9 mph - N/A   Overcast
1:56 PM 57.0 °F - 25.0 °F 29% 29.87 in 10.0 mi Calm Calm - N/A   Overcast
2:56 PM 57.9 °F - 24.1 °F 27% 29.87 in 10.0 mi ESE 9.2 mph - N/A   Overcast
3:56 PM 59.0 °F - 25.0 °F 27% 29.88 in 10.0 mi SE 8.1 mph - N/A   Overcast
4:56 PM 59.0 °F - 21.9 °F 24% 29.89 in 10.0 mi West 11.5 mph 17.3 mph N/A   Overcast
5:56 PM 57.0 °F - 21.0 °F 25% 29.90 in 10.0 mi West 10.4 mph - N/A   Mostly Cloudy
6:56 PM 53.1 °F - 21.9 °F 30% 29.91 in 10.0 mi West 8.1 mph - N/A   Clear
7:56 PM 51.1 °F - 23.0 °F 33% 29.92 in 10.0 mi WSW 9.2 mph - N/A   Clear
8:56 PM 52.0 °F - 21.9 °F 31% 29.94 in 10.0 mi WSW 5.8 mph - N/A   Clear
9:56 PM 50.0 °F - 23.0 °F 35% 29.96 in 10.0 mi Calm Calm - N/A   Clear
10:56 PM 48.9 °F - 23.0 °F 36% 29.97 in 10.0 mi WNW 3.5 mph - N/A   Clear
11:56 PM 48.9 °F - 25.0 °F 39% 29.97 in 10.0 mi Calm Calm - N/A   Clear